Location: Ay?beleni
(36.6500°N, 30.3000°E)
Time: 00:42:04
(UTC+00:00)

Cosmos 1726 - Pass Details

Date: 09 April 2020
Orbit: 482 x 499 km, 82.5° (Epoch: 06 June)

Event Time Altitude Azimuth Distance (km) Brightness Sun altitude
Rises 17:23:45 0° 201° (SSW) 2,576 5.8 -11.6°
Reaches altitude 10° 17:25:56 10° 209° (SSW) 1,698 4.9 -12.0°
Maximum altitude 17:29:28 40° 280° (W) 749 3.6 -12.7°
Drops below altitude 10° 17:33:00 10° 351° (N) 1,707 5.2 -13.3°
Sets 17:35:13 0° 359° (N) 2,593 6.1 -13.7°
